FW2316 Weather Reports


Display with metric or nautical units.
time (UTC)temp
F
wind
direction
speed
MPH
gust
MPH
rain 1hr
in
rain 24hr
in
rain mn
in
humidity
%
barometer
mb
20260906070529 54 129 0.0 3.0 0.00 0.04 0.04 84 1017.5
20260906070129 54 129 0.0 3.0 0.00 0.04 0.04 84 1017.6
20260906065529 54 130 0.0 3.0 0.00 0.04 0.04 83 1017.5
20260906065029 55 131 0.0 3.0 0.00 0.04 0.04 82 1017.6
20260906064528 55 133 0.0 2.0 0.00 0.04 0.04 82 1017.6
20260906064028 55 133 0.0 3.0 0.00 0.04 0.04 82 1017.6
20260906063528 55 134 0.0 3.0 0.00 0.04 0.04 82 1017.5
20260906063029 55 142 0.0 1.0 0.00 0.04 0.04 82 1017.7
20260906062528 56 142 0.0 1.0 0.00 0.04 0.04 81 1017.6
20260906062027 56 142 0.0 2.0 0.00 0.04 0.04 81 1017.6
20260906061527 56 142 0.0 5.0 0.00 0.04 0.04 81 1017.6
20260906061030 56 142 0.0 5.0 0.00 0.04 0.04 81 1017.7
20260906060527 56 126 1.0 3.0 0.00 0.04 0.04 81 1017.6
20260906060026 55 44 0.0 1.0 0.00 0.04 0.04 83 1017.6
20260906055526 55 44 0.0 1.0 0.00 0.04 0.04 83 1017.6
20260906055026 55 44 0.0 1.0 0.00 0.04 0.04 83 1017.6
20260906054531 56 44 0.0 2.0 0.00 0.04 0.04 83 1017.7
20260906054025 55 44 0.0 2.0 0.00 0.04 0.04 83 1017.7
20260906053524 56 82 0.0 1.0 0.00 0.04 0.04 83 1017.8
20260906053025 56 82 0.0 1.0 0.00 0.04 0.04 83 1017.9
20260906052525 56 81 0.0 1.0 0.00 0.04 0.04 83 1017.9
20260906052025 56 50 0.0 1.0 0.00 0.04 0.04 83 1017.8
20260906051526 56 76 0.0 1.0 0.00 0.04 0.04 83 1018.1
20260906051024 57 76 0.0 1.0 0.00 0.04 0.04 83 1018.1
20260906050524 57 77 0.0 2.0 0.00 0.04 0.04 83 1018.0
20260906050124 58 330 1.0 4.0 0.00 0.04 0.04 83 1018.2
20260906045524 58 329 0.0 4.0 0.00 0.04 0.04 83 1018.2
20260906045023 58 327 1.0 4.0 0.00 0.04 0.04 83 1018.2
20260906044524 58 329 0.0 5.0 0.00 0.04 0.04 82 1018.3
20260906044030 58 327 1.0 5.0 0.00 0.04 0.04 83 1018.3
20260906043523 58 313 1.0 5.0 0.00 0.04 0.04 83 1018.2
20260906043030 58 309 1.0 3.0 0.00 0.04 0.04 84 1018.2
20260906042523 58 309 0.0 3.0 0.00 0.04 0.04 84 1018.3
20260906042024 58 309 0.0 3.0 0.00 0.04 0.04 84 1018.3
20260906041523 58 310 0.0 1.0 0.00 0.04 0.04 84 1018.4
20260906041022 59 310 0.0 1.0 0.00 0.04 0.04 83 1018.4
20260906040522 59 310 0.0 1.0 0.00 0.04 0.04 83 1018.4
20260906040023 59 310 0.0 3.0 0.00 0.04 0.04 83 1018.4
20260906035521 59 310 0.0 3.0 0.00 0.04 0.04 83 1018.4
20260906035022 59 310 0.0 3.0 0.00 0.04 0.04 83 1018.4
20260906034523 59 310 0.0 3.0 0.00 0.04 0.04 83 1018.3
20260906034020 59 309 0.0 4.0 0.00 0.04 0.04 83 1018.3
20260906033521 59 309 0.0 4.0 0.00 0.04 0.04 83 1018.3
20260906033025 59 305 0.0 0.0 0.00 0.04 0.04 83 1018.3
20260906032520 59 305 0.0 0.0 0.00 0.04 0.04 83 1018.2
20260906032021 59 305 0.0 0.0 0.00 0.04 0.04 83 1018.2
20260906031520 59 305 0.0 0.0 0.00 0.04 0.04 81 1018.1
20260906031020 60 305 0.0 0.0 0.00 0.04 0.04 81 1018.1
20260906030520 60 305 0.0 0.0 0.00 0.04 0.04 81 1018.0
20260906030023 59 27 0.0 0.0 0.00 0.04 0.04 79 1018.0
20260906025520 59 27 0.0 0.0 0.00 0.04 0.04 79 1018.0
20260906025020 60 27 0.0 0.0 0.00 0.04 0.04 78 1018.0
20260906024520 60 27 0.0 0.0 0.00 0.04 0.04 76 1018.0
20260906024019 61 27 0.0 0.0 0.00 0.04 0.04 75 1018.1
20260906023519 61 27 0.0 0.0 0.00 0.04 0.04 75 1018.1
20260906023019 62 27 0.0 0.0 0.00 0.04 0.04 74 1018.1
20260906022519 62 27 0.0 0.0 0.00 0.04 0.04 73 1018.1
20260906022018 63 27 0.0 0.0 0.00 0.04 0.04 73 1017.9
20260906021519 63 27 0.0 0.0 0.00 0.04 0.04 71 1018.0
20260906021024 63 27 0.0 0.0 0.00 0.04 0.04 70 1017.9
20260906020519 64 27 0.0 0.0 0.00 0.04 0.04 69 1017.9
20260906020118 66 305 1.0 3.0 0.00 0.04 0.04 67 1017.9
20260906015518 66 305 1.0 3.0 0.00 0.04 0.04 67 1017.9
20260906015018 66 305 2.0 4.0 0.00 0.04 0.04 66 1017.9
20260906014524 66 305 2.0 4.0 0.00 0.04 0.04 66 1017.9
20260906014020 66 306 2.0 4.0 0.00 0.04 0.04 66 1017.7
20260906013517 66 305 2.0 4.0 0.00 0.04 0.04 65 1017.7
20260906013028 66 305 2.0 5.0 0.00 0.04 0.04 67 1017.7
20260906012518 66 305 2.0 5.0 0.00 0.04 0.04 66 1017.8
20260906012022 66 305 1.0 5.0 0.00 0.04 0.04 66 1017.7
20260906011517 66 305 1.0 4.0 0.00 0.04 0.04 66 1017.7
20260906011016 66 305 0.0 5.0 0.00 0.04 0.04 67 1017.7
20260906010517 65 305 4.0 5.0 0.00 0.04 0.04 66 1017.7
20260906005515 65 303 2.0 4.0 0.00 0.04 0.04 67 1017.6
20260906005015 65 303 2.0 3.0 0.00 0.04 0.04 67 1017.7
20260906004515 65 302 1.0 3.0 0.00 0.04 0.04 69 1017.6
20260906004016 65 302 0.0 0.0 0.00 0.04 0.04 68 1017.7
20260906003515 65 303 0.0 0.0 0.00 0.04 0.04 67 1017.6
20260906003014 66 303 0.0 0.0 0.00 0.04 0.04 67 1017.7
20260906002513 66 302 0.0 4.0 0.00 0.04 0.04 66 1017.7
20260906002013 66 302 1.0 5.0 0.00 0.07 0.04 65 1017.6
20260906001518 66 304 3.0 5.0 0.00 0.07 0.04 66 1017.6
20260906001013 67 313 3.0 5.0 0.00 0.07 0.04 66 1017.7
20260906000513 66 325 2.0 5.0 0.00 0.07 0.04 66 1017.7
20260906000033 66 351 0.0 2.0 0.00 0.07 0.04 66 1017.6
20260905235513 66 351 0.0 2.0 0.00 0.07 0.04 66 1017.6
20260905235015 66 11 0.0 2.0 0.00 0.07 0.04 65 1017.7
20260905234512 66 159 0.0 3.0 0.00 0.07 0.04 66 1017.7
20260905234012 66 342 0.0 3.0 0.00 0.07 0.04 65 1017.7
20260905233512 66 334 0.0 2.0 0.00 0.07 0.04 67 1017.7
20260905233012 66 61 0.0 2.0 0.00 0.07 0.04 65 1017.7
20260905232511 66 80 1.0 2.0 0.00 0.07 0.04 65 1017.6
20260905232009 66 187 0.0 1.0 0.00 0.08 0.04 67 1017.8
20260905231509 65 50 0.0 3.0 0.00 0.08 0.04 67 1017.6
20260905231007 65 51 0.0 2.0 0.00 0.08 0.04 66 1017.6
20260905230507 65 343 0.0 1.0 0.00 0.08 0.04 68 1017.8
20260905230108 65 323 5.0 10.0 0.00 0.08 0.04 69 1017.7
20260905225509 65 321 7.0 10.0 0.00 0.08 0.04 68 1017.9
20260905225004 64 320 5.0 11.0 0.00 0.08 0.04 71 1018.0
20260905224503 64 323 5.0 9.0 0.00 0.08 0.04 75 1018.0
20260905224002 64 334 3.0 8.0 0.00 0.08 0.04 74 1018.2
20260905223600 63 10 4.0 8.0 0.00 0.08 0.04 77 1018.2
20260905223059 63 355 3.0 6.0 0.00 0.08 0.04 77 1018.3
20260905222559 63 360 3.0 8.0 0.00 0.08 0.04 77 1018.3
20260905222058 62 319 2.0 9.0 0.00 0.11 0.04 77 1018.3
20260905221558 62 300 3.0 6.0 0.00 0.11 0.04 75 1018.4
20260905221059 62 336 2.0 6.0 0.00 0.11 0.04 76 1018.5
20260905220558 62 327 3.0 6.0 0.00 0.11 0.04 75 1018.6
20260905220100 62 120 0.0 3.0 0.00 0.11 0.04 77 1018.5
20260905215058 62 120 0.0 6.0 0.00 0.11 0.04 76 1018.6
20260905214601 62 121 3.0 5.0 0.00 0.11 0.04 78 1018.6
20260905214056 62 112 1.0 3.0 0.00 0.11 0.04 76 1018.8
20260905213556 62 112 1.0 3.0 0.00 0.11 0.04 75 1018.8
20260905213056 61 115 0.0 3.0 0.00 0.11 0.04 75 1018.9
20260905212556 61 115 1.0 3.0 0.00 0.11 0.04 77 1018.9
20260905212053 61 117 0.0 3.0 0.00 0.11 0.04 80 1018.9
20260905211553 61 118 1.0 3.0 0.00 0.11 0.04 80 1018.9
20260905211051 60 119 0.0 2.0 0.00 0.11 0.04 82 1019.0
20260905210551 60 119 0.0 6.0 0.00 0.11 0.04 83 1019.0
20260905210100 60 123 0.0 3.0 0.01 0.11 0.04 85 1019.0
20260905205053 60 123 1.0 3.0 0.01 0.11 0.04 84 1019.2
20260905204558 60 124 1.0 3.0 0.01 0.11 0.04 83 1019.2
20260905204050 59 124 0.0 1.0 0.01 0.11 0.04 83 1019.2
20260905203549 59 124 0.0 2.0 0.01 0.11 0.04 82 1019.2
20260905203049 59 123 0.0 3.0 0.01 0.11 0.04 84 1019.3
20260905202548 59 123 0.0 3.0 0.01 0.11 0.04 85 1019.2
20260905202047 58 122 0.0 2.0 0.01 0.11 0.04 85 1019.3
20260905201547 58 121 0.0 1.0 0.01 0.11 0.04 88 1019.2
20260905201045 57 121 0.0 1.0 0.01 0.11 0.04 86 1019.1
20260905200545 58 121 0.0 1.0 0.01 0.11 0.04 89 1019.1
20260905200043 57 121 0.0 1.0 0.01 0.10 0.03 88 1019.2
20260905195042 57 121 0.0 1.0 0.01 0.10 0.03 92 1019.2
20260905194540 56 121 0.0 0.0 0.01 0.10 0.03 93 1019.4
20260905194039 56 121 0.0 0.0 0.01 0.10 0.03 93 1019.4
20260905193538 56 121 0.0 0.0 0.01 0.10 0.03 93 1019.4
20260905193036 55 121 0.0 0.0 0.01 0.10 0.03 92 1019.5
20260905192534 55 121 0.0 0.0 0.01 0.10 0.03 93 1019.5
20260905192033 55 121 0.0 0.0 0.02 0.10 0.03 93 1019.6
20260905191531 55 121 0.0 0.0 0.02 0.10 0.03 93 1019.6
20260905191030 55 121 0.0 0.0 0.02 0.10 0.03 93 1019.5
20260905190530 55 121 0.0 0.0 0.02 0.10 0.03 93 1019.4
20260905190030 54 121 0.0 0.0 0.02 0.09 0.02 93 1019.6
20260905185029 54 121 0.0 0.0 0.02 0.09 0.02 93 1019.7
20260905184545 54 121 0.0 0.0 0.02 0.09 0.02 92 1019.6
20260905184029 54 121 0.0 0.0 0.02 0.09 0.02 93 1019.6
20260905183532 54 121 0.0 1.0 0.02 0.09 0.02 92 1019.6
20260905183041 54 121 0.0 2.0 0.02 0.09 0.02 92 1019.5
20260905182533 54 121 0.0 2.0 0.02 0.09 0.02 92 1019.5
20260905182029 54 121 0.0 0.0 0.02 0.09 0.02 92 1019.6
20260905181530 54 121 0.0 0.0 0.01 0.08 0.01 92 1019.6
20260905181028 54 121 0.0 1.0 0.01 0.08 0.01 91 1019.6
20260905180528 54 121 0.0 1.0 0.01 0.08 0.01 91 1019.6
20260905180034 54 121 0.0 1.0 0.00 0.07 0.00 90 1019.7
20260905175027 55 121 0.0 4.0 0.00 0.07 0.00 90 1019.7
20260905174527 55 121 0.0 4.0 0.00 0.07 0.00 90 1019.6
20260905174026 55 121 0.0 3.0 0.00 0.07 0.00 89 1019.6
20260905173527 55 121 0.0 2.0 0.00 0.07 0.00 89 1019.5
20260905173028 55 121 0.0 1.0 0.00 0.07 0.00 89 1019.5
20260905172525 55 121 0.0 1.0 0.00 0.07 0.00 88 1019.4
20260905172024 54 121 0.0 2.0 0.00 0.07 0.00 88 1019.4
20260905171523 54 121 0.0 2.0 0.00 0.07 0.00 89 1019.4
20260905171021 54 121 0.0 2.0 0.00 0.07 0.00 89 1019.4
20260905170520 54 121 0.0 2.0 0.00 0.07 0.00 90 1019.4
20260905170019 54 121 0.0 2.0 0.00 0.07 0.00 89 1019.4
20260905165018 53 121 0.0 1.0 0.00 0.07 0.00 89 1019.4
20260905164518 53 121 0.0 1.0 0.00 0.07 0.00 88 1019.4
20260905164018 53 121 0.0 2.0 0.00 0.07 0.00 88 1019.3
20260905163517 53 121 0.0 2.0 0.00 0.07 0.00 87 1019.4
20260905163016 53 121 0.0 3.0 0.00 0.07 0.00 87 1019.3
20260905162516 53 121 0.0 6.0 0.00 0.07 0.00 87 1019.3
20260905162014 53 121 1.0 6.0 0.00 0.07 0.00 87 1019.3
20260905161514 53 126 0.0 2.0 0.00 0.07 0.00 86 1019.3
20260905161012 53 126 0.0 2.0 0.00 0.07 0.00 87 1019.3
20260905160512 52 126 0.0 0.0 0.00 0.07 0.00 86 1019.2
20260905160014 52 126 0.0 0.0 0.00 0.07 0.00 86 1019.3
20260905155010 52 126 0.0 2.0 0.00 0.07 0.00 86 1019.3
20260905154510 52 126 0.0 2.0 0.00 0.07 0.00 86 1019.2
20260905154009 52 127 0.0 2.0 0.00 0.07 0.00 86 1019.3
20260905153508 52 127 0.0 1.0 0.00 0.07 0.00 85 1019.3
20260905153007 52 127 0.0 4.0 0.00 0.07 0.00 85 1019.2
20260905152507 52 127 1.0 4.0 0.00 0.07 0.00 85 1019.2
20260905152010 52 128 0.0 1.0 0.00 0.07 0.00 86 1019.1
20260905151506 52 128 0.0 0.0 0.00 0.07 0.00 86 1019.1
20260905151010 52 128 0.0 2.0 0.00 0.07 0.00 86 1019.0
20260905150506 52 128 0.0 1.0 0.00 0.07 0.00 86 1019.2
20260905150006 52 128 0.0 1.0 0.00 0.07 0.00 86 1019.1
20260905145008 52 128 0.0 1.0 0.00 0.07 0.00 86 1019.1
20260905144507 51 128 0.0 1.0 0.00 0.07 0.00 87 1019.1
20260905144005 51 128 0.0 1.0 0.00 0.07 0.00 86 1019.0
20260905143507 51 128 0.0 1.0 0.00 0.07 0.00 86 1019.0
20260905143004 52 128 0.0 2.0 0.00 0.07 0.00 86 1018.9
20260905142503 52 128 0.0 7.0 0.00 0.07 0.00 85 1018.9
20260905142002 52 128 1.0 7.0 0.00 0.07 0.00 85 1018.8
20260905141501 52 124 0.0 4.0 0.00 0.07 0.00 85 1018.9
20260905141059 51 124 0.0 4.0 0.00 0.07 0.00 86 1018.9
20260905140559 51 123 0.0 4.0 0.00 0.07 0.00 86 1018.8
20260905140058 51 123 0.0 4.0 0.00 0.07 0.00 86 1018.7
20260905135054 51 122 0.0 2.0 0.00 0.07 0.00 87 1018.5
20260905134554 51 122 0.0 2.0 0.00 0.07 0.00 87 1018.4
20260905134053 51 122 0.0 1.0 0.00 0.07 0.00 87 1018.4
20260905133551 51 122 0.0 1.0 0.00 0.07 0.00 86 1018.4
20260905133051 52 122 0.0 1.0 0.00 0.07 0.00 85 1018.3
20260905132549 52 122 0.0 2.0 0.00 0.07 0.00 86 1018.3
20260905132050 52 122 0.0 3.0 0.00 0.07 0.00 86 1018.3
20260905131550 52 122 0.0 3.0 0.00 0.07 0.00 85 1018.3
20260905131053 52 122 0.0 3.0 0.00 0.07 0.00 86 1018.3
20260905130550 52 121 0.0 3.0 0.00 0.07 0.00 86 1018.3
20260905130051 52 121 0.0 2.0 0.00 0.07 0.00 86 1018.3
20260905125049 51 121 0.0 3.0 0.00 0.07 0.00 87 1018.2
20260905124550 52 121 0.0 2.0 0.00 0.07 0.00 86 1018.2
20260905124049 52 121 0.0 3.0 0.00 0.07 0.00 86 1018.2
20260905123548 51 121 0.0 3.0 0.00 0.07 0.00 86 1018.2
20260905123055 51 120 0.0 2.0 0.00 0.07 0.00 87 1018.3
20260905122548 51 119 0.0 1.0 0.00 0.07 0.00 86 1018.3
20260905122051 52 119 0.0 1.0 0.00 0.07 0.00 86 1018.3
20260905121548 52 119 0.0 3.0 0.00 0.07 0.00 86 1018.1
20260905121048 52 119 0.0 4.0 0.00 0.07 0.00 86 1018.1
20260905120549 52 119 1.0 4.0 0.00 0.07 0.00 86 1018.2
20260905120049 52 117 0.0 2.0 0.00 0.07 0.00 86 1018.2
20260905115046 52 117 1.0 6.0 0.00 0.07 0.00 86 1018.2
20260905114546 52 121 0.0 3.0 0.00 0.07 0.00 86 1018.2
20260905114043 52 121 0.0 4.0 0.00 0.07 0.00 86 1018.2
20260905113544 52 120 0.0 2.0 0.00 0.07 0.00 87 1018.1
20260905113049 52 120 0.0 2.0 0.00 0.07 0.00 86 1018.1
20260905112543 52 120 0.0 2.0 0.00 0.07 0.00 86 1018.1
20260905112042 52 120 0.0 3.0 0.00 0.07 0.00 87 1017.9
20260905111612 52 119 0.0 3.0 0.00 0.07 0.00 87 1017.9
20260905111039 51 119 0.0 3.0 0.00 0.07 0.00 88 1017.9
20260905110541 51 119 0.0 3.0 0.00 0.07 0.00 89 1017.8
20260905110043 50 119 0.0 3.0 0.00 0.07 0.00 90 1017.8
20260905105039 50 119 0.0 1.0 0.00 0.07 0.00 90 1017.9
20260905104538 50 119 0.0 1.0 0.00 0.07 0.00 90 1017.8
20260905104041 50 119 0.0 1.0 0.00 0.07 0.00 90 1017.8
20260905103538 51 119 0.0 2.0 0.00 0.07 0.00 89 1017.8
20260905103039 51 119 0.0 2.0 0.00 0.07 0.00 89 1017.7
20260905102538 51 119 0.0 3.0 0.00 0.07 0.00 88 1017.7
20260905102038 51 119 0.0 3.0 0.00 0.07 0.00 89 1017.7
20260905101548 51 119 0.0 2.0 0.00 0.07 0.00 89 1017.7
20260905101038 51 119 0.0 2.0 0.00 0.07 0.00 89 1017.8
20260905100535 51 119 0.0 2.0 0.00 0.07 0.00 90 1017.8
20260905100040 50 119 0.0 1.0 0.00 0.07 0.00 91 1017.8
20260905095035 50 119 0.0 1.0 0.00 0.07 0.00 91 1017.8
20260905094535 50 119 0.0 1.0 0.00 0.07 0.00 91 1017.8
20260905094035 50 119 0.0 2.0 0.00 0.07 0.00 91 1017.8
20260905093534 50 119 0.0 0.0 0.00 0.07 0.00 91 1017.8
20260905093034 51 119 0.0 0.0 0.00 0.07 0.00 91 1017.8
20260905092533 51 119 0.0 0.0 0.00 0.07 0.00 91 1017.8
20260905092032 51 119 0.0 0.0 0.00 0.07 0.07 90 1017.8
20260905091534 51 119 0.0 0.0 0.00 0.07 0.07 91 1017.8
20260905091031 51 119 0.0 0.0 0.00 0.07 0.07 91 1017.8
20260905090530 51 119 0.0 0.0 0.00 0.07 0.07 91 1017.8
20260905090030 51 119 0.0 0.0 0.00 0.07 0.07 91 1017.7
20260905085030 51 119 0.0 0.0 0.00 0.07 0.07 91 1017.9
20260905084536 51 119 0.0 0.0 0.00 0.07 0.07 91 1017.8
20260905084029 51 119 0.0 0.0 0.00 0.07 0.07 91 1017.7
20260905083528 51 119 0.0 0.0 0.00 0.07 0.07 91 1017.6
20260905083032 51 119 0.0 0.0 0.00 0.07 0.07 90 1017.6
20260905082527 51 119 0.0 0.0 0.00 0.07 0.07 90 1017.7
20260905082027 52 119 0.0 0.0 0.00 0.10 0.07 89 1017.6
20260905081528 52 119 0.0 0.0 0.00 0.10 0.07 88 1017.6
20260905081027 52 119 0.0 2.0 0.00 0.10 0.07 88 1017.6
20260905080526 53 119 0.0 2.0 0.00 0.10 0.07 88 1017.6
20260905080038 53 119 0.0 2.0 0.00 0.10 0.07 87 1017.5
20260905075026 53 120 0.0 4.0 0.00 0.10 0.07 87 1017.5
20260905074526 53 118 0.0 4.0 0.00 0.10 0.07 87 1017.5
20260905074026 53 117 0.0 3.0 0.00 0.10 0.07 87 1017.4
20260905073524 53 117 0.0 2.0 0.00 0.10 0.07 87 1017.4
20260905073024 53 117 0.0 3.0 0.00 0.10 0.07 87 1017.4
20260905072524 53 117 0.0 3.0 0.00 0.10 0.07 87 1017.3
20260905072125 53 117 0.0 2.0 0.00 0.11 0.07 87 1017.3
20260905071524 53 117 0.0 2.0 0.00 0.11 0.07 87 1017.3
20260905071026 53 117 0.0 3.0 0.00 0.11 0.07 87 1017.3